Time,TemperatureF,DewpointF,PressureIn,WindDirection,WindDirectionDegrees,WindSpeedMPH,WindSpeedGustMPH,Humidity,HourlyPrecipIn,Conditions,Clouds,dailyrainin,SoftwareType,DateUTC
2013-10-04 00:56:00,72.0,70.1,29.90,SSE,157,0.0,-999.0,94,-99.99,,,0.00,Acu-Link.com,2013-10-04 04:56:00,
2013-10-04 01:11:00,71.8,70.0,29.90,NE,45,0.0,-999.0,94,-99.99,,,0.00,Acu-Link.com,2013-10-04 05:11:00,
2013-10-04 01:27:00,71.8,70.0,29.90,NE,45,0.0,-999.0,94,-99.99,,,0.00,Acu-Link.com,2013-10-04 05:27:00,
2013-10-04 01:42:00,71.6,69.8,29.89,ESE,112,0.0,-999.0,94,-99.99,,,0.00,Acu-Link.com,2013-10-04 05:42:00,
2013-10-04 01:57:00,71.4,69.6,29.90,NE,45,0.0,-999.0,94,-99.99,,,0.00,Acu-Link.com,2013-10-04 05:57:00,
2013-10-04 02:12:00,71.4,69.6,29.89,East,90,0.0,-999.0,94,-99.99,,,0.00,Acu-Link.com,2013-10-04 06:12:00,
2013-10-04 02:27:00,71.2,69.4,29.89,NE,45,0.0,-999.0,94,-99.99,,,0.00,Acu-Link.com,2013-10-04 06:27:00,
2013-10-04 02:43:00,71.1,69.2,29.89,SSW,202,0.0,-999.0,94,-99.99,,,0.00,Acu-Link.com,2013-10-04 06:43:00,
2013-10-04 02:58:00,70.9,69.1,29.89,SSE,157,0.0,-999.0,94,-99.99,,,0.00,Acu-Link.com,2013-10-04 06:58:00,
2013-10-04 03:15:00,70.9,69.1,29.89,SE,135,0.0,-999.0,94,-99.99,,,0.00,Acu-Link.com,2013-10-04 07:15:00,
2013-10-04 03:30:00,70.9,69.1,29.88,NE,45,0.0,-999.0,94,-99.99,,,0.00,Acu-Link.com,2013-10-04 07:30:00,
2013-10-04 03:45:00,70.7,68.9,29.88,NE,45,0.0,-999.0,94,-99.99,,,0.00,Acu-Link.com,2013-10-04 07:45:00,
2013-10-04 04:00:00,70.7,68.9,29.88,NE,45,0.0,-999.0,94,-99.99,,,0.00,Acu-Link.com,2013-10-04 08:00:00,
2013-10-04 04:16:00,70.3,68.5,29.88,SE,135,0.0,-999.0,94,-99.99,,,0.00,Acu-Link.com,2013-10-04 08:16:00,
2013-10-04 04:31:00,70.2,68.3,29.88,WNW,292,0.0,-999.0,94,-99.99,,,0.00,Acu-Link.com,2013-10-04 08:31:00,
2013-10-04 04:46:00,70.2,68.3,29.87,ESE,112,0.0,-999.0,94,-99.99,,,0.00,Acu-Link.com,2013-10-04 08:46:00,
2013-10-04 05:02:00,70.0,68.5,29.87,ESE,112,0.0,-999.0,95,-99.99,,,0.00,Acu-Link.com,2013-10-04 09:02:00,
2013-10-04 05:17:00,69.8,68.3,29.87,ESE,112,0.0,-999.0,95,-99.99,,,0.00,Acu-Link.com,2013-10-04 09:17:00,
2013-10-04 05:32:00,69.6,68.1,29.87,ESE,112,0.0,-999.0,95,-99.99,,,0.00,Acu-Link.com,2013-10-04 09:32:00,
2013-10-04 05:47:00,69.1,67.6,29.88,SSE,157,0.0,-999.0,95,-99.99,,,0.00,Acu-Link.com,2013-10-04 09:47:00,
2013-10-04 06:02:00,69.1,67.6,29.89,SSE,157,0.0,-999.0,95,-99.99,,,0.00,Acu-Link.com,2013-10-04 10:02:00,
2013-10-04 06:17:00,69.1,67.6,29.89,SE,135,0.0,-999.0,95,-99.99,,,0.00,Acu-Link.com,2013-10-04 10:17:00,
2013-10-04 06:33:00,69.1,67.6,29.89,SE,135,0.0,-999.0,95,-99.99,,,0.00,Acu-Link.com,2013-10-04 10:33:00,
2013-10-04 06:48:00,68.7,67.2,29.89,NW,315,0.0,-999.0,95,-99.99,,,0.00,Acu-Link.com,2013-10-04 10:48:00,
2013-10-04 07:03:00,68.7,67.2,29.90,West,270,0.0,-999.0,95,-99.99,,,0.00,Acu-Link.com,2013-10-04 11:03:00,
2013-10-04 07:19:00,68.7,67.5,29.91,West,270,0.0,-999.0,96,-99.99,,,0.00,Acu-Link.com,2013-10-04 11:19:00,
2013-10-04 07:34:00,68.7,67.5,29.90,West,270,0.0,-999.0,96,-99.99,,,0.00,Acu-Link.com,2013-10-04 11:34:00,
2013-10-04 07:49:00,68.7,67.5,29.90,South,180,0.0,-999.0,96,-99.99,,,0.00,Acu-Link.com,2013-10-04 11:49:00,
2013-10-04 08:04:00,68.7,67.5,29.91,SE,135,0.0,-999.0,96,-99.99,,,0.00,Acu-Link.com,2013-10-04 12:04:00,
2013-10-04 08:20:00,69.3,68.1,29.91,West,270,0.0,-999.0,96,-99.99,,,0.00,Acu-Link.com,2013-10-04 12:20:00,
2013-10-04 08:35:00,71.2,70.0,29.92,WNW,292,0.0,-999.0,96,-99.99,,,0.00,Acu-Link.com,2013-10-04 12:35:00,
2013-10-04 08:50:00,74.3,71.5,29.93,West,270,0.0,-999.0,91,-99.99,,,0.00,Acu-Link.com,2013-10-04 12:50:00,
2013-10-04 09:06:00,76.6,73.5,29.93,SSE,157,0.0,-999.0,90,-99.99,,,0.00,Acu-Link.com,2013-10-04 13:06:00,
2013-10-04 09:21:00,79.2,74.6,29.93,SW,225,0.0,-999.0,86,-99.99,,,0.00,Acu-Link.com,2013-10-04 13:21:00,
2013-10-04 09:36:00,79.9,75.3,29.93,SW,225,0.0,-999.0,86,-99.99,,,0.00,Acu-Link.com,2013-10-04 13:36:00,
2013-10-04 09:52:00,82.9,76.9,29.94,SSE,157,0.0,-999.0,82,-99.99,,,0.00,Acu-Link.com,2013-10-04 13:52:00,
2013-10-04 10:07:00,82.8,76.7,29.94,WNW,292,0.0,-999.0,82,-99.99,,,0.00,Acu-Link.com,2013-10-04 14:07:00,
2013-10-04 10:22:00,86.4,76.7,29.94,ENE,67,0.0,-999.0,73,-99.99,,,0.00,Acu-Link.com,2013-10-04 14:22:00,
2013-10-04 10:38:00,85.3,76.4,29.94,NW,315,0.0,-999.0,75,-99.99,,,0.00,Acu-Link.com,2013-10-04 14:38:00,
2013-10-04 10:53:00,84.0,76.4,29.94,ESE,112,0.0,-999.0,78,-99.99,,,0.00,Acu-Link.com,2013-10-04 14:53:00,
2013-10-04 11:08:00,86.9,75.9,29.94,East,90,1.1,-999.0,70,-99.99,,,0.00,Acu-Link.com,2013-10-04 15:08:00,
2013-10-04 11:23:00,86.2,75.6,29.94,West,270,0.0,-999.0,71,-99.99,,,0.00,Acu-Link.com,2013-10-04 15:23:00,
2013-10-04 11:38:00,87.1,75.6,29.94,West,270,1.6,-999.0,69,-99.99,,,0.00,Acu-Link.com,2013-10-04 15:38:00,
2013-10-04 11:54:00,86.9,74.6,29.94,East,90,0.0,-999.0,67,-99.99,,,0.00,Acu-Link.com,2013-10-04 15:54:00,
2013-10-04 12:09:00,86.5,72.4,29.93,NE,45,1.1,-999.0,63,-99.99,,,0.00,Acu-Link.com,2013-10-04 16:09:00,
2013-10-04 12:24:00,86.0,72.4,29.94,ENE,67,1.1,-999.0,64,-99.99,,,0.00,Acu-Link.com,2013-10-04 16:24:00,
2013-10-04 12:40:00,86.4,73.6,29.93,SE,135,1.6,-999.0,66,-99.99,,,0.00,Acu-Link.com,2013-10-04 16:40:00,
2013-10-04 12:55:00,86.5,72.4,29.92,ENE,67,0.0,-999.0,63,-99.99,,,0.00,Acu-Link.com,2013-10-04 16:55:00,
2013-10-04 13:10:00,85.6,72.5,29.92,East,90,0.0,-999.0,65,-99.99,,,0.00,Acu-Link.com,2013-10-04 17:10:00,
2013-10-04 13:25:00,86.0,71.4,29.90,SSE,157,2.2,-999.0,62,-99.99,,,0.00,Acu-Link.com,2013-10-04 17:25:00,
2013-10-04 14:11:00,85.6,70.6,29.88,East,90,1.1,-999.0,61,-99.99,,,0.00,Acu-Link.com,2013-10-04 18:11:00,
2013-10-04 14:26:00,87.1,72.0,29.88,SSE,157,4.7,-999.0,61,-99.99,,,0.00,Acu-Link.com,2013-10-04 18:26:00,
2013-10-04 14:41:00,87.1,71.0,29.87,SSE,157,3.1,-999.0,59,-99.99,,,0.00,Acu-Link.com,2013-10-04 18:41:00,
2013-10-04 14:56:00,85.6,71.6,29.87,ESE,112,1.6,-999.0,63,-99.99,,,0.00,Acu-Link.com,2013-10-04 18:56:00,
2013-10-04 15:12:00,87.4,72.3,29.87,South,180,2.2,-999.0,61,-99.99,,,0.00,Acu-Link.com,2013-10-04 19:12:00,
2013-10-04 15:27:00,87.4,70.8,29.86,SSE,157,2.7,-999.0,58,-99.99,,,0.00,Acu-Link.com,2013-10-04 19:27:00,
2013-10-04 15:42:00,88.2,72.5,29.86,NE,45,2.2,-999.0,60,-99.99,,,0.00,Acu-Link.com,2013-10-04 19:42:00,
2013-10-04 15:57:00,86.5,73.3,29.86,SSW,202,2.7,-999.0,65,-99.99,,,0.00,Acu-Link.com,2013-10-04 19:57:00,
2013-10-04 16:13:00,86.5,73.3,29.85,SSE,157,5.1,-999.0,65,-99.99,,,0.00,Acu-Link.com,2013-10-04 20:13:00,
2013-10-04 16:28:00,89.1,73.8,29.86,NW,315,1.6,-999.0,61,-99.99,,,0.00,Acu-Link.com,2013-10-04 20:28:00,
2013-10-04 16:43:00,87.1,73.9,29.85,SE,135,1.1,-999.0,65,-99.99,,,0.00,Acu-Link.com,2013-10-04 20:43:00,
2013-10-04 16:59:00,86.0,73.7,29.85,WSW,247,1.1,-999.0,67,-99.99,,,0.00,Acu-Link.com,2013-10-04 20:59:00,
2013-10-04 17:14:00,84.7,73.4,29.85,SSE,157,1.6,-999.0,69,-99.99,,,0.00,Acu-Link.com,2013-10-04 21:14:00,
2013-10-04 17:29:00,83.7,72.8,29.86,East,90,1.6,-999.0,70,-99.99,,,0.00,Acu-Link.com,2013-10-04 21:29:00,
2013-10-04 17:44:00,83.7,73.2,29.86,SSE,157,3.8,-999.0,71,-99.99,,,0.00,Acu-Link.com,2013-10-04 21:44:00,
2013-10-04 18:00:00,82.4,73.3,29.86,SSE,157,2.7,-999.0,74,-99.99,,,0.00,Acu-Link.com,2013-10-04 22:00:00,
2013-10-04 18:15:00,81.9,72.7,29.86,South,180,3.1,-999.0,74,-99.99,,,0.00,Acu-Link.com,2013-10-04 22:15:00,
2013-10-04 18:30:00,81.1,72.8,29.86,ESE,112,2.7,-999.0,76,-99.99,,,0.00,Acu-Link.com,2013-10-04 22:30:00,
2013-10-04 18:45:00,80.4,73.3,29.87,East,90,1.1,-999.0,79,-99.99,,,0.00,Acu-Link.com,2013-10-04 22:45:00,
2013-10-04 19:01:00,79.7,73.0,29.87,ESE,112,0.0,-999.0,80,-99.99,,,0.00,Acu-Link.com,2013-10-04 23:01:00,
2013-10-04 19:16:00,79.0,73.0,29.88,SSE,157,2.2,-999.0,82,-99.99,,,0.00,Acu-Link.com,2013-10-04 23:16:00,
2013-10-04 19:31:00,78.4,72.8,29.88,ESE,112,0.0,-999.0,83,-99.99,,,0.00,Acu-Link.com,2013-10-04 23:31:00,
2013-10-04 19:47:00,77.9,72.7,29.89,ESE,112,0.0,-999.0,84,-99.99,,,0.00,Acu-Link.com,2013-10-04 23:47:00,
2013-10-04 20:02:00,77.4,72.5,29.89,ESE,112,0.0,-999.0,85,-99.99,,,0.00,Acu-Link.com,2013-10-05 00:02:00,
2013-10-04 20:17:00,77.0,72.5,29.90,NNE,22,0.0,-999.0,86,-99.99,,,0.00,Acu-Link.com,2013-10-05 00:17:00,
2013-10-04 20:32:00,76.5,72.3,29.89,ESE,112,0.0,-999.0,87,-99.99,,,0.00,Acu-Link.com,2013-10-05 00:32:00,
2013-10-04 20:48:00,75.9,72.1,29.90,SSE,157,0.0,-999.0,88,-99.99,,,0.00,Acu-Link.com,2013-10-05 00:48:00,
2013-10-04 21:03:00,75.6,72.1,29.90,SSE,157,0.0,-999.0,89,-99.99,,,0.00,Acu-Link.com,2013-10-05 01:03:00,
2013-10-04 21:18:00,75.2,71.7,29.91,SSE,157,0.0,-999.0,89,-99.99,,,0.00,Acu-Link.com,2013-10-05 01:18:00,
2013-10-04 21:33:00,75.0,71.9,29.91,SSE,157,0.0,-999.0,90,-99.99,,,0.00,Acu-Link.com,2013-10-05 01:33:00,
2013-10-04 21:49:00,74.7,71.9,29.92,SSE,157,0.0,-999.0,91,-99.99,,,0.00,Acu-Link.com,2013-10-05 01:49:00,
2013-10-04 22:04:00,74.5,71.7,29.92,SSE,157,0.0,-999.0,91,-99.99,,,0.00,Acu-Link.com,2013-10-05 02:04:00,
2013-10-04 22:19:00,74.1,71.6,29.92,East,90,0.0,-999.0,92,-99.99,,,0.00,Acu-Link.com,2013-10-05 02:19:00,
2013-10-04 22:35:00,74.1,71.6,29.92,WSW,247,0.0,-999.0,92,-99.99,,,0.00,Acu-Link.com,2013-10-05 02:35:00,
2013-10-04 22:50:00,73.8,71.3,29.92,SE,135,0.0,-999.0,92,-99.99,,,0.00,Acu-Link.com,2013-10-05 02:50:00,
2013-10-04 23:05:00,73.6,71.1,29.92,WSW,247,0.0,-999.0,92,-99.99,,,0.00,Acu-Link.com,2013-10-05 03:05:00,
2013-10-04 23:20:00,73.2,70.8,29.92,West,270,0.0,-999.0,92,-99.99,,,0.00,Acu-Link.com,2013-10-05 03:20:00,
2013-10-04 23:36:00,72.9,70.7,29.92,ESE,112,0.0,-999.0,93,-99.99,,,0.00,Acu-Link.com,2013-10-05 03:36:00,
2013-10-04 23:51:00,72.5,70.4,29.92,ESE,112,0.0,-999.0,93,-99.99,,,0.00,Acu-Link.com,2013-10-05 03:51:00,